カタログに戻る

APSTAR 6C

運用中通信GEO
NORAD 43450·PAYLOAD·🇨🇳 China

打ち上げ May 3, 2018 から Xichang Satellite Launch Center

Loading…

TLE

最新Source: Space-Track

元期: Sep 14, 2026, 14:26 UTC

1 43450U 18041A   26257.60170779 -.00000325  00000-0  00000+0 0  9999
2 43450   0.0607 303.3822 0001692 282.2113 118.6166  1.00273378 30709

AllMySatでAPSTAR 6Cをリアルタイム追跡

Download on the App Store